Theta_e
303 303 303 304 304 304 304 304 305 306 306 305 305 305 306 307 309 304 303 306 301 296 299 300 299 295 294 293 288 293 292 292 290 287 287 290 289 290 288 290 289 287 285 285 286 283 281 299 298 292 299 303 302 302
303 303 303 303 304 304 304 304 304 304 304 305 305 305 305 307 308 306 300 304 305 297 297 304 304 304 301 299 294 293 293 292 292 289 289 290 289 291 289 286 295 288 292 289 289 291 298 302 301 304 304 301 301 301
302 302 303 303 304 304 304 304 304 304 304 305 305 306 307 307 308 307 303 302 300 295 295 298 298 305 307 305 305 292 293 295 294 298 292 290 288 293 287 289 290 294 297 293 293 297 298 301 302 303 303 302 303 302
302 302 302 303 303 304 304 304 304 304 304 305 305 306 307 308 309 308 301 303 301 296 290 297 304 301 304 306 305 303 300 299 299 296 289 289 288 295 291 293 291 294 295 293 293 297 299 300 301 303 302 303 300 301
302 302 302 302 303 303 303 303 304 304 304 305 306 307 308 308 308 309 305 304 305 298 290 293 301 304 303 304 301 301 299 297 293 289 288 288 293 294 295 294 292 297 293 291 291 297 297 298 302 302 299 297 298 297
301 301 302 302 302 302 303 303 303 303 304 305 306 307 308 308 308 302 295 301 303 302 291 289 300 299 301 300 299 298 298 297 293 290 290 293 297 293 289 289 296 297 299 298 297 300 300 301 302 301 298 298 300 299
301 301 302 302 302 302 302 303 303 304 304 305 306 307 307 307 307 299 296 304 304 303 292 289 293 298 299 300 300 297 298 294 293 290 290 292 294 294 291 288 294 298 299 300 300 298 297 299 295 299 300 300 300 299
302 301 302 302 303 303 303 303 304 304 304 305 306 307 307 305 302 298 303 304 304 297 295 287 291 294 300 295 294 298 292 292 291 291 293 291 293 293 288 295 297 297 296 297 297 299 299 298 300 300 299 298 297 298
302 302 302 302 303 304 304 305 305 304 304 305 306 305 303 300 296 297 305 302 302 297 291 288 286 290 299 297 295 293 295 288 295 290 291 293 290 288 293 295 295 296 296 295 298 298 297 298 297 296 297 297 297 295
303 303 303 303 303 304 305 305 304 304 304 305 303 297 291 297 305 303 296 292 292 292 293 287 292 288 296 294 293 289 293 291 288 291 293 287 289 296 297 298 296 298 297 298 295 295 296 296 294 296 296 298 296 295
302 303 304 304 304 305 305 305 304 304 304 300 294 290 297 303 296 292 288 288 288 286 289 289 290 288 296 288 290 294 288 289 287 289 289 289 291 294 295 294 297 296 297 297 299 299 298 297 296 296 297 296 295 295
301 303 304 304 304 305 305 304 303 302 299 298 296 299 297 292 290 288 287 288 286 286 291 291 291 291 292 295 289 291 288 288 285 293 289 287 291 296 294 295 296 297 297 298 298 296 298 298 298 297 297 295 296 295
301 303 303 303 304 304 305 303 303 302 300 297 292 289 290 288 284 284 282 285 286 291 292 291 289 290 291 291 289 288 286 289 295 289 289 292 294 296 296 297 296 297 298 297 296 297 297 297 298 297 296 296 296 293
301 302 302 303 303 304 304 303 303 301 298 290 288 284 286 284 287 290 291 292 294 293 292 292 289 288 290 288 289 286 292 293 287 285 285 291 294 296 297 298 296 296 297 296 295 296 296 297 296 297 296 296 294 291
301 302 302 302 303 303 303 303 303 301 295 289 289 285 287 294 295 297 297 295 294 295 293 292 292 290 289 288 292 291 288 286 288 289 294 295 298 297 298 297 297 297 296 296 296 296 296 296 296 295 296 296 293 291
302 302 302 303 303 303 303 303 300 299 294 290 288 288 293 292 293 295 296 294 295 294 295 292 289 288 288 290 288 287 287 286 292 297 298 298 297 297 297 298 297 296 296 295 295 296 297 296 295 295 296 294 293 290
302 299 303 303 303 303 302 297 296 291 290 289 289 293 295 296 296 297 299 297 297 293 289 290 287 287 292 289 286 293 290 295 297 298 299 299 298 298 298 296 295 295 295 295 296 297 296 296 296 295 292 293 293 290
299 302 303 303 302 299 296 296 291 289 287 290 289 295 294 296 297 297 298 298 295 292 291 289 292 289 289 285 290 295 297 298 299 298 298 299 299 299 297 296 295 295 296 296 296 297 296 295 294 293 293 293 292 290
301 302 303 301 300 295 291 291 292 288 290 293 292 293 296 297 298 299 300 299 298 297 294 293 291 290 292 296 297 297 297 297 296 297 298 300 300 298 296 296 295 296 296 297 296 295 295 295 295 294 293 292 290 289
302 301 302 301 300 292 288 289 293 290 290 294 296 295 296 297 299 298 298 298 296 293 291 290 293 296 296 300 303 302 299 299 297 295 296 298 299 298 296 295 296 296 296 297 296 292 294 294 295 294 292 291 289 288
300 301 301 300 296 295 292 291 290 292 294 293 297 296 295 297 295 295 295 299 292 290 291 296 298 299 302 304 304 302 299 299 297 297 296 296 297 296 296 296 297 296 295 296 295 294 293 292 294 294 293 292 292 290
298 300 297 298 293 293 292 297 294 296 293 294 293 295 293 292 293 293 297 293 291 293 296 298 298 299 299 300 301 301 300 300 300 297 294 294 294 294 294 295 296 294 295 295 295 294 294 294 293 293 293 293 292 291
299 298 295 295 290 289 289 297 290 291 287 291 294 290 291 292 295 298 292 294 296 300 300 300 300 301 301 301 302 301 301 300 298 297 297 296 295 295 295 295 296 294 294 295 297 296 295 289 293 294 294 293 293 292
299 294 290 289 290 287 292 289 291 290 291 289 290 288 290 293 294 291 289 293 296 299 299 299 299 298 299 300 299 299 300 301 299 297 297 295 294 294 295 294 295 294 295 297 297 296 296 294 291 294 294 293 292 291
288 288 290 285 289 287 286 287 287 288 286 287 286 287 290 295 288 287 288 292 296 297 298 299 300 299 297 298 299 299 301 299 297 295 296 296 294 294 294 294 294 294 296 294 295 295 295 295 294 293 292 292 292 291
283 287 287 288 288 287 288 285 286 287 287 286 288 293 295 290 287 287 289 291 295 296 298 299 299 298 298 299 297 296 298 300 298 295 295 296 296 294 293 292 291 292 295 294 294 294 293 294 293 292 292 292 287 292
284 285 290 295 292 292 289 292 293 291 287 287 290 289 289 286 287 287 291 291 292 294 296 298 300 299 298 298 299 299 299 299 299 297 297 297 296 296 296 293 292 293 294 293 293 293 293 293 292 292 292 293 293 292
289 290 286 289 289 291 288 289 288 287 290 294 293 287 286 283 282 284 287 289 290 294 296 300 302 302 300 297 298 298 297 297 297 297 296 295 296 296 295 294 293 283 291 291 291 292 293 293 293 292 291 292 292 293
288 291 290 287 288 288 288 289 289 291 292 290 288 285 283 285 285 285 287 288 291 294 296 296 296 297 297 297 297 297 296 295 293 292 291 290 291 292 294 294 293 293 292 289 281 285 288 290 292 292 291 291 292 293
289 292 288 288 287 287 290 292 291 291 290 288 287 286 285 285 285 287 287 288 287 290 296 296 296 296 294 293 293 294 296 297 297 295 292 291 292 294 294 293 292 292 292 291 290 289 282 288 287 292 292 292 292 291
292 291 289 289 288 289 289 290 290 290 289 288 289 287 285 285 287 286 284 285 286 287 292 294 295 296 295 294 293 291 290 294 295 296 296 295 295 294 293 292 292 292 291 290 290 289 289 289 289 288 288 288 288 288
290 288 289 286 287 289 291 289 289 288 287 286 285 288 287 285 281 283 284 284 283 282 282 288 290 290 292 292 293 293 289 293 294 295 294 295 293 293 292 291 291 290 289 288 288 288 287 286 286 286 286 284 284 284
289 289 289 289 287 287 288 288 287 285 285 284 283 284 283 283 279 283 286 285 283 282 283 284 285 287 289 289 289 288 288 288 285 283 284 284 284 287 290 290 289 288 287 287 286 286 285 285 285 284 284 284 283 282
Wind_Speed
14 13 13 12 12 12 12 11 10 9 8 8 9 9 9 10 9 7 2 6 3 3 6 6 7 8 5 4 3 3 6 3 2 4 4 3 4 2 4 3 3 4 6 5 6 4 9 3 4 5 8 12 14 16
14 13 14 13 12 12 11 10 8 7 8 9 11 11 11 11 5 12 2 3 2 2 5 6 11 14 16 13 3 5 4 3 1 3 2 3 3 3 3 3 6 4 4 1 5 3 3 2 8 8 9 12 15 18
15 14 14 13 11 11 10 8 8 9 10 11 12 12 13 12 10 15 3 4 3 2 5 8 8 10 12 16 13 5 4 5 4 2 2 2 6 2 3 3 5 5 5 7 6 3 4 7 7 6 10 17 18 17
15 14 13 13 12 10 9 8 8 9 11 11 12 13 14 15 12 14 5 5 1 2 3 3 2 4 4 9 14 17 13 1 1 3 3 3 3 4 3 5 9 9 11 9 13 13 9 8 6 14 18 18 19 20
13 13 13 12 12 11 10 9 9 10 12 13 14 15 14 13 9 5 6 5 3 3 2 5 12 11 4 13 12 13 12 11 2 2 3 3 4 4 6 7 9 7 6 6 5 6 8 13 15 19 17 17 18 20
12 13 14 12 12 11 10 11 11 11 13 14 15 14 14 9 3 3 2 3 4 2 2 4 5 5 5 5 9 11 8 6 3 3 3 3 5 3 4 4 6 4 5 3 6 9 12 16 16 14 17 19 20 21
12 13 13 12 11 11 10 12 12 12 12 13 13 14 11 7 6 2 2 3 11 3 2 4 4 6 4 6 5 5 6 2 2 2 4 3 4 4 3 7 4 6 4 7 8 9 14 14 15 16 17 19 20 20
13 13 12 12 12 11 12 13 13 12 12 12 14 11 8 13 9 1 3 14 8 3 3 3 4 5 5 3 3 4 4 3 5 3 3 3 2 3 5 9 4 1 4 7 7 10 13 15 16 16 16 17 20 20
13 12 12 12 12 12 12 12 10 12 12 12 3 16 5 2 2 3 14 7 2 2 3 3 3 1 4 3 2 2 3 3 3 4 3 3 3 6 7 5 2 2 5 8 11 12 13 13 15 16 18 19 19 21
13 13 13 12 12 11 11 10 10 12 11 8 2 1 2 1 20 14 3 3 2 0 1 3 3 5 2 2 3 1 3 3 4 3 3 3 3 10 3 4 2 3 4 8 12 13 15 15 14 17 18 17 18 19
13 12 12 12 12 12 9 8 8 9 9 1 2 2 0 5 2 1 3 4 4 4 5 4 6 5 1 4 2 2 1 1 3 3 3 4 3 4 4 2 1 4 6 10 11 13 13 14 14 15 17 18 18 20
14 13 11 11 10 9 7 4 2 1 1 4 6 3 2 1 2 4 4 3 5 4 5 4 3 4 1 1 2 2 3 2 1 5 3 3 4 7 6 3 3 5 7 10 10 12 13 13 13 14 15 17 18 18
14 11 8 8 9 10 8 6 3 17 8 2 3 3 3 3 5 5 7 5 4 4 4 4 3 2 2 2 2 2 4 2 4 4 2 2 5 6 5 3 2 6 6 8 10 12 13 13 14 14 15 16 18 17
13 10 9 8 5 5 7 6 9 9 1 2 3 5 5 5 6 4 4 2 5 2 3 3 2 3 2 4 3 4 3 4 3 4 1 3 5 5 3 3 4 5 7 8 10 12 14 14 14 14 14 15 16 17
13 12 11 9 8 8 7 4 17 1 1 2 3 4 6 5 3 2 3 5 3 2 3 2 3 3 3 3 4 2 4 4 2 2 5 6 6 4 1 3 5 6 7 8 10 11 12 13 13 14 14 15 15 16
15 12 7 10 11 10 10 11 3 1 2 2 3 4 4 4 5 6 4 3 4 2 1 2 2 3 4 3 4 4 2 0 2 3 6 6 5 5 4 4 6 7 8 8 9 10 11 12 13 14 15 15 15 16
11 3 12 16 14 10 12 2 2 3 3 3 3 4 7 3 4 1 1 3 4 3 3 2 4 2 2 3 3 1 1 2 3 5 5 6 6 5 4 6 6 7 7 8 9 9 11 12 12 13 15 16 14 15
3 5 12 13 10 7 2 1 2 3 5 4 4 4 5 5 4 2 3 4 3 4 3 3 2 4 3 2 2 3 3 4 4 5 6 6 6 6 5 6 6 7 7 8 8 9 10 12 13 11 13 15 13 15
5 4 10 18 6 4 3 3 3 3 6 2 3 4 4 4 4 4 4 5 2 1 2 2 4 3 3 2 1 4 5 5 6 6 7 6 7 7 6 5 5 7 7 8 9 7 8 11 10 10 10 11 11 12
9 9 18 16 7 2 3 2 2 3 4 3 4 4 3 3 2 5 6 5 3 2 3 3 3 2 3 0 0 3 6 7 8 7 7 7 6 6 5 5 4 4 5 5 7 7 7 8 9 10 10 11 12 13
6 8 15 5 2 1 1 3 4 3 2 3 1 3 2 3 5 4 4 5 3 2 3 5 4 3 4 2 2 5 8 8 7 6 6 6 5 5 4 4 3 4 5 5 6 7 8 8 8 9 9 10 11 12
3 5 3 2 2 4 3 3 1 3 3 1 2 3 2 2 3 4 4 4 3 3 4 4 5 4 3 4 7 7 10 8 8 8 9 7 5 5 5 4 4 5 6 6 6 7 7 8 9 8 9 9 9 11
6 2 2 3 2 1 2 3 2 2 3 1 2 3 2 2 1 3 3 3 3 5 6 5 6 5 3 8 9 10 10 9 7 7 6 6 5 5 5 4 4 5 5 5 5 5 6 6 7 8 8 9 10 11
3 2 3 3 2 3 3 3 2 2 2 3 3 2 2 2 4 2 2 2 3 3 8 9 6 5 6 8 7 8 7 6 7 7 6 6 6 5 5 5 5 5 5 4 4 5 5 6 6 8 9 10 11 12
3 2 3 2 1 4 5 4 4 4 3 3 2 3 2 3 2 3 2 1 2 4 5 8 8 5 6 7 7 7 7 8 8 8 6 6 6 6 5 5 5 5 3 4 4 5 5 5 6 8 10 10 12 13
2 3 4 5 4 4 3 4 5 5 3 4 6 1 0 2 3 2 2 2 2 4 2 5 6 5 6 7 8 8 8 7 9 8 7 5 4 5 6 6 6 6 4 4 4 5 6 6 7 8 8 9 6 10
2 3 3 1 1 2 2 1 1 2 3 3 3 3 2 3 2 3 2 4 4 5 4 5 3 5 6 7 7 8 7 7 8 8 7 6 6 4 3 4 6 5 4 5 5 5 5 6 6 6 7 8 9 10
2 1 2 4 2 2 1 2 2 3 2 1 1 1 1 5 3 4 3 4 8 6 4 2 1 3 6 8 8 9 9 10 12 10 9 7 6 7 8 8 8 7 7 8 6 5 5 6 6 6 7 7 7 8
1 1 2 3 3 2 3 2 1 2 2 3 1 3 3 3 5 4 4 6 8 4 3 5 5 6 8 7 8 8 9 10 13 14 12 9 8 6 6 6 5 5 5 7 9 9 9 7 7 6 5 5 5 5
1 2 1 3 3 2 2 3 2 3 3 3 3 4 4 3 5 6 7 7 6 5 3 4 5 7 8 9 9 8 6 5 6 6 8 8 9 8 6 6 5 5 4 4 4 5 3 4 4 2 2 4 4 5
1 2 1 0 2 2 4 5 5 3 3 3 4 5 4 3 2 8 11 8 6 8 3 4 4 5 7 8 9 9 7 3 5 4 7 10 10 9 7 6 5 5 4 5 5 5 4 5 5 6 7 7 7 6
1 1 2 2 3 2 0 2 2 3 3 3 4 2 2 2 4 6 9 9 8 8 9 8 7 7 7 7 7 8 8 8 8 10 14 10 10 9 8 6 6 5 5 6 5 5 6 6 6 5 6 7 7 7
1 1 2 1 2 2 2 1 3 3 3 3 4 4 4 4 5 5 4 7 7 7 6 5 6 7 9 10 11 10 11 11 15 16 17 14 11 7 6 6 5 5 6 6 6 6 7 7 7 7 7 6 6 5
Wind_Direction
289 288 292 289 288 284 281 280 279 275 276 279 285 293 301 303 220 170 187 190 192 223 278 244 251 240 252 238 239 9 290 140 197 230 256 301 292 47 273 314 290 204 192 191 214 236 253 129 188 252 353 315 313 311
285 286 289 288 288 284 281 276 266 264 269 273 275 278 277 277 289 187 205 161 150 222 271 297 268 258 252 250 237 191 279 122 249 258 235 302 273 255 311 285 192 262 247 313 235 235 292 229 294 311 308 305 310 308
282 283 287 290 288 282 282 271 263 263 266 269 274 282 285 278 260 188 190 129 128 233 270 253 252 239 219 231 222 218 208 224 214 211 296 277 264 254 264 252 287 265 253 254 285 232 242 281 297 264 304 313 313 314
282 282 282 284 286 278 272 269 266 272 278 279 285 284 278 274 263 195 183 170 142 115 263 262 150 224 210 231 216 211 244 203 255 167 220 258 261 246 262 279 275 282 280 290 290 276 320 259 283 323 319 316 317 308
282 283 277 278 279 278 275 273 271 276 282 287 285 285 282 275 249 206 199 186 181 178 243 291 301 268 287 223 224 218 225 231 215 193 214 233 260 263 262 273 260 257 274 267 285 330 311 300 316 316 313 314 311 307
283 280 275 276 273 272 273 273 276 279 281 282 289 295 300 280 185 122 172 167 166 134 122 284 25 248 183 182 213 226 228 218 163 193 217 231 253 246 275 255 279 218 247 189 296 318 300 302 301 322 322 310 314 315
285 281 278 275 273 270 271 270 273 279 283 285 292 298 287 268 172 207 184 98 146 116 155 259 244 150 199 208 174 200 197 179 165 204 225 234 236 209 247 263 346 286 328 320 331 311 300 324 319 309 325 322 316 309
283 279 278 273 269 268 268 270 272 281 286 289 295 278 302 114 118 87 67 126 118 116 201 247 268 232 161 208 209 147 157 194 183 233 220 218 172 224 255 261 254 16 293 292 281 296 296 294 302 335 323 317 311 318
276 276 274 268 271 276 268 269 271 284 289 289 328 107 109 71 146 119 125 80 40 277 221 199 244 329 176 152 187 194 188 182 199 221 208 201 183 225 245 284 151 293 313 306 301 298 294 318 330 323 322 319 323 325
277 265 266 265 264 270 268 263 272 293 301 238 84 116 105 329 123 105 87 164 170 345 263 252 219 257 256 214 149 233 226 223 205 198 130 214 241 261 310 82 114 282 317 308 310 322 328 326 328 322 322 325 329 323
293 285 274 269 260 264 266 263 288 302 124 128 91 71 33 67 67 114 136 201 156 216 195 219 233 240 192 245 264 207 261 234 242 143 238 205 235 120 122 122 247 306 303 299 314 326 328 324 323 323 324 331 331 335
283 286 274 271 266 259 255 221 320 45 29 105 99 79 65 187 215 212 187 154 221 238 170 216 177 201 245 204 249 230 261 194 266 142 245 253 91 143 155 196 252 287 289 340 342 336 333 329 332 327 331 334 337 342
279 278 279 277 259 252 215 200 199 134 121 74 74 141 195 159 209 220 185 192 208 191 167 181 176 186 186 219 240 249 236 217 159 203 232 69 132 153 179 208 282 273 345 346 346 344 337 336 338 337 338 340 343 343
276 269 265 264 275 208 186 201 192 149 123 149 169 170 228 179 231 209 232 67 82 164 175 182 160 193 173 191 232 241 219 196 236 219 209 118 163 158 171 232 327 349 352 344 347 343 341 345 340 342 353 349 349 353
266 262 255 248 217 208 190 230 156 152 151 176 210 219 212 243 229 229 192 133 161 200 176 198 194 176 183 235 226 247 211 224 298 49 66 121 135 159 139 48 0 359 354 355 347 348 345 346 344 352 359 358 1 360
253 253 224 192 193 194 177 165 106 122 174 189 233 246 226 240 229 204 199 210 140 199 142 220 223 219 199 252 207 221 260 154 99 74 95 132 137 115 87 42 28 7 6 5 354 354 348 351 353 359 4 2 9 7
230 224 188 191 179 175 147 111 105 180 222 219 227 242 281 284 294 6 229 145 154 180 186 201 219 192 145 237 229 125 252 75 115 109 109 104 124 102 87 63 37 29 19 13 1 3 358 356 2 10 8 1 13 12
200 172 185 173 143 93 80 106 125 185 229 220 235 207 193 258 277 187 175 118 173 181 187 221 233 211 221 200 142 167 151 118 109 121 120 120 112 109 82 67 46 38 29 18 17 8 12 8 13 13 8 5 16 16
157 180 153 133 111 110 135 150 189 225 223 202 243 252 259 251 239 264 165 148 168 166 272 225 221 200 192 176 221 141 139 151 140 136 118 112 116 95 87 79 58 47 38 32 24 23 16 24 14 18 12 14 16 25
143 138 147 140 114 117 134 167 239 229 218 191 224 215 229 247 226 208 203 177 162 188 212 220 236 178 151 19 303 130 139 140 144 144 140 127 127 119 74 49 50 51 60 41 61 16 34 26 23 22 26 23 22 18
126 149 129 126 106 190 214 168 181 221 225 225 158 224 220 209 226 205 186 164 187 218 222 220 203 126 3 39 105 130 137 152 155 144 134 129 130 116 111 105 73 58 57 48 35 49 37 28 20 18 22 26 34 21
71 86 96 33 162 179 220 192 292 135 204 166 176 259 236 229 223 212 158 180 203 211 234 206 165 154 228 158 144 147 137 128 93 94 90 115 134 125 104 76 71 75 63 48 39 33 35 39 0 39 25 24 32 46
116 65 110 173 155 197 125 169 205 176 219 178 204 210 210 225 111 143 215 236 241 208 207 178 162 230 159 129 129 136 145 145 142 127 136 108 101 102 107 93 64 76 83 68 51 39 41 10 31 17 41 31 34 36
152 132 155 160 186 138 175 167 183 232 217 230 217 219 218 174 139 222 264 222 228 205 174 156 173 148 145 154 154 149 156 148 131 128 131 132 118 104 95 93 87 67 50 52 53 51 48 52 11 31 27 40 38 41
146 155 177 139 209 190 185 163 198 210 239 178 234 242 210 138 198 217 228 105 12 111 150 169 206 186 159 139 137 135 154 155 147 132 128 107 107 121 113 103 89 68 31 74 59 54 54 58 48 48 40 29 42 43
110 162 202 194 142 218 199 187 200 211 192 199 217 274 245 165 231 191 87 27 51 51 113 189 195 176 161 156 142 143 147 146 137 130 129 132 121 128 133 137 130 98 47 40 55 67 64 61 54 47 46 57 26 44
149 176 176 241 336 130 242 286 308 248 226 225 161 207 215 232 146 61 36 31 354 11 336 306 203 172 151 131 116 126 134 146 144 122 112 94 77 74 95 109 96 75 55 47 50 44 53 61 66 51 49 58 46 41
3 204 202 166 196 247 305 225 224 237 253 77 218 263 346 17 48 348 344 346 318 313 291 217 190 129 123 128 129 130 119 114 119 121 111 98 91 88 88 82 76 41 56 31 18 52 46 48 59 67 50 40 50 43
235 137 184 172 198 221 230 266 220 27 21 347 354 77 79 59 4 342 320 312 303 277 178 139 106 111 114 118 123 132 143 150 153 156 150 138 137 121 114 111 103 87 84 91 61 39 38 32 34 57 65 64 39 46
147 177 229 174 219 207 86 347 55 71 49 64 102 123 104 94 33 11 2 9 355 351 2 112 146 150 138 133 126 131 144 162 169 161 157 154 135 132 126 116 102 91 84 87 94 112 184 221 152 117 58 59 65 75
276 202 173 1 37 39 81 85 74 67 60 50 44 84 98 125 121 39 19 5 0 357 31 112 119 129 136 142 141 135 120 88 88 104 124 116 127 123 115 107 99 89 80 70 60 48 59 57 47 44 43 44 46 25
13 345 290 119 95 78 350 46 68 74 58 46 45 41 124 92 55 36 12 3 21 33 11 17 61 64 63 75 75 78 89 107 107 115 122 116 111 114 113 104 98 91 89 83 72 65 61 58 56 52 62 53 32 20
56 33 24 79 130 108 49 109 89 92 60 68 56 31 39 44 66 32 39 20 18 18 30 42 37 48 61 74 85 82 72 77 72 64 63 59 55 68 94 89 86 86 86 79 72 72 70 67 57 52 48 44 48 29